EW0362 Weather Reports


time (UTC)temp
C
wind
direction
speed
KPH
gust
KPH
rain 1hr
cm
rain 24hr
cm
rain mn
cm
humidity
%
barometer
mb
20260906045704 17 56 0.0 0.0 0.00 0.00 0.00 95 1013.1
20260906045204 17 56 0.0 0.0 0.00 0.00 0.00 95 1013.1
20260906044704 17 56 0.0 0.0 0.00 0.00 0.00 95 1013.1
20260906044204 17 56 0.0 0.0 0.00 0.00 0.00 95 1013.0
20260906043203 17 56 0.0 0.0 0.00 0.00 0.00 95 1013.0
20260906042205 17 56 0.0 0.0 0.00 0.00 0.00 95 1013.0
20260906041205 17 56 0.0 0.0 0.00 0.00 0.00 95 1013.0
20260906035705 17 56 0.0 0.0 0.00 0.00 0.00 95 1013.0
20260906035205 17 56 0.0 0.0 0.00 0.00 0.00 95 1013.0
20260906034705 17 56 0.0 0.0 0.00 0.00 0.00 95 1013.0
20260906033705 17 56 0.0 0.0 0.00 0.00 0.00 95 1012.9
20260906032705 17 56 0.0 0.0 0.00 0.00 0.00 95 1012.9
20260906032205 17 56 0.0 0.0 0.00 0.00 0.00 95 1012.8
20260906030705 17 56 0.0 0.0 0.00 0.00 0.00 95 1012.7
20260906025704 17 56 0.0 0.0 0.00 0.00 0.00 95 1012.8
20260906025204 17 56 0.0 0.0 0.00 0.00 0.00 95 1012.7
20260906024705 17 56 0.0 0.0 0.00 0.00 0.00 95 1012.7
20260906024204 17 56 0.0 0.0 0.00 0.00 0.00 95 1012.8
20260906022705 17 56 0.0 0.0 0.00 0.00 0.00 94 1012.7
20260906022205 17 56 0.0 0.0 0.00 0.00 0.00 94 1012.6
20260906021205 17 56 0.0 0.0 0.00 0.00 0.00 94 1012.6
20260906020704 17 56 0.0 0.0 0.00 0.00 0.00 94 1012.6
20260906020205 17 56 0.0 0.0 0.00 0.00 0.00 94 1012.7
20260906015204 17 56 0.0 0.0 0.00 0.00 0.00 94 1012.7
20260906014204 17 56 0.0 0.0 0.00 0.00 0.00 94 1012.8
20260906013704 17 56 0.0 0.0 0.00 0.00 0.00 94 1012.8
20260906011704 17 56 0.0 0.0 0.00 0.00 0.00 94 1012.8
20260906005205 17 56 0.0 0.0 0.00 0.00 0.00 93 1012.6
20260906004704 17 56 0.0 0.0 0.00 0.00 0.00 93 1012.6
20260906004204 17 56 0.0 0.0 0.00 0.00 0.00 93 1012.6
20260906002204 17 56 0.0 0.0 0.00 0.00 0.00 92 1012.3
20260906001705 17 56 0.0 0.0 0.00 0.00 0.00 92 1012.3
20260906001205 17 56 0.0 0.0 0.00 0.00 0.00 92 1012.3
20260905235705 18 56 0.0 0.0 0.00 0.00 0.00 92 1012.2
20260905235205 18 56 0.0 0.0 0.00 0.00 0.00 91 1012.2
20260905232704 18 56 0.0 0.0 0.00 0.00 0.00 91 1012.0
20260905232204 18 56 0.0 0.0 0.00 0.00 0.00 91 1012.0
20260905231705 18 56 0.0 0.0 0.00 0.00 0.00 91 1011.9
20260905230704 18 56 0.0 0.0 0.00 0.00 0.00 90 1011.9
20260905230205 18 56 0.0 0.0 0.00 0.00 0.00 90 1011.9
20260905224705 18 56 0.0 0.0 0.00 0.00 0.00 90 1011.7
20260905223704 18 56 0.0 0.0 0.00 0.00 0.00 90 1011.7
20260905220705 18 53 0.0 0.0 0.00 0.00 0.00 89 1011.6
20260905215706 18 53 1.6 4.8 0.00 0.00 0.00 87 1011.4
20260905214204 18 83 0.0 1.6 0.00 0.00 0.00 88 1011.1
20260905211705 18 35 0.0 3.2 0.00 0.00 0.00 89 1010.8
20260905211205 18 51 1.6 8.0 0.00 0.00 0.00 88 1010.8
20260905210705 18 17 0.0 0.0 0.00 0.00 0.00 89 1010.7
20260905210205 18 17 1.6 3.2 0.00 0.00 0.00 88 1010.7
20260905205205 19 70 1.6 4.8 0.00 0.00 0.00 87 1010.7
20260905204205 19 230 0.0 3.2 0.00 0.00 0.00 86 1010.7
20260905203705 20 45 1.6 12.9 0.00 0.00 0.00 84 1010.7
20260905202204 20 119 1.6 4.8 0.00 0.00 0.00 80 1010.8
20260905200704 22 45 3.2 19.3 0.00 0.00 0.00 77 1010.3
20260905195707 22 340 1.6 3.2 0.00 0.00 0.00 80 1009.9
20260905193204 22 59 0.0 1.6 0.00 0.00 0.00 77 1009.8
20260905192705 22 56 3.2 8.0 0.00 0.00 0.00 74 1009.8
20260905192204 22 25 1.6 4.8 0.00 0.00 0.00 74 1009.8
20260905191205 22 65 1.6 4.8 0.00 0.00 0.00 78 1009.7
20260905184204 22 67 0.0 0.0 0.00 0.00 0.00 79 1009.8
20260905182704 22 130 1.6 3.2 0.00 0.00 0.00 76 1009.8
20260905181205 22 110 1.6 11.3 0.00 0.00 0.00 75 1009.8
20260905180205 22 69 1.6 3.2 0.00 0.00 0.00 75 1009.9
20260905175204 22 227 1.6 4.8 0.00 0.00 0.00 75 1009.9
20260905174704 22 209 0.0 4.8 0.00 0.00 0.00 75 1009.8
20260905171704 22 52 0.0 8.0 0.00 0.00 0.00 76 1009.6
20260905170705 22 264 0.0 3.2 0.00 0.00 0.00 74 1009.5
20260905170204 22 338 1.6 4.8 0.00 0.00 0.00 73 1009.6
20260905165204 22 22 1.6 8.0 0.00 0.00 0.00 76 1009.6
20260905164204 22 245 1.6 8.0 0.00 0.00 0.00 75 1009.5
20260905163704 22 43 1.6 4.8 0.00 0.00 0.00 77 1009.6
20260905162704 22 74 1.6 11.3 0.00 0.00 0.00 76 1009.6
20260905162205 21 251 1.6 3.2 0.00 0.00 0.00 78 1009.7
20260905161204 21 80 0.0 3.2 0.00 0.00 0.00 80 1009.8
20260905154705 21 62 1.6 3.2 0.00 0.00 0.00 79 1009.8
20260905153704 21 39 0.0 4.8 0.00 0.00 0.00 81 1009.8
20260905152704 21 84 1.6 8.0 0.00 0.00 0.00 82 1009.9
20260905152205 21 151 0.0 3.2 0.00 0.00 0.00 82 1009.9
20260905151204 21 64 0.0 3.2 0.00 0.00 0.00 85 1009.8
20260905144704 20 84 0.0 1.6 0.00 0.00 0.00 85 1010.0
20260905143205 20 84 0.0 0.0 0.00 0.00 0.00 84 1010.0
20260905142204 20 84 1.6 3.2 0.00 0.00 0.00 85 1010.0
20260905135204 20 133 0.0 3.2 0.00 0.00 0.00 89 1009.9
20260905134704 20 78 0.0 3.2 0.00 0.00 0.00 87 1009.9
20260905133204 19 54 0.0 3.2 0.00 0.00 0.00 88 1009.8
20260905132705 19 46 0.0 1.6 0.00 0.00 0.00 89 1009.7
20260905131704 18 39 0.0 0.0 0.00 0.00 0.00 91 1009.6
20260905130704 18 77 0.0 0.0 0.00 0.00 0.00 92 1009.5
20260905124704 18 267 0.0 0.0 0.00 0.00 0.00 95 1009.4
20260905124204 17 267 0.0 1.6 0.00 0.00 0.00 95 1009.4
20260905123705 17 267 0.0 3.2 0.00 0.00 0.00 95 1009.3
20260905123204 17 10 0.0 3.2 0.00 0.00 0.00 95 1009.3
20260905122704 17 65 0.0 3.2 0.00 0.00 0.00 95 1009.2
20260905121704 17 64 0.0 3.2 0.00 0.00 0.00 97 1009.0
20260905120704 16 337 0.0 1.6 0.00 0.00 0.00 98 1009.1
20260905120204 16 337 0.0 0.0 0.00 0.00 0.00 98 1009.0
20260905113704 16 81 0.0 0.0 0.00 0.00 0.00 98 1008.9
20260905113204 16 81 0.0 0.0 0.00 0.00 0.00 97 1008.9
20260905112704 16 81 0.0 0.0 0.00 0.00 0.00 97 1008.9
20260905111704 15 81 0.0 0.0 0.00 0.00 0.00 97 1008.9
20260905111204 15 81 0.0 0.0 0.00 0.00 0.00 97 1008.9
20260905105704 15 81 0.0 0.0 0.00 0.00 0.00 96 1008.7
20260905105204 15 81 0.0 0.0 0.00 0.00 0.00 96 1008.7
20260905103204 15 81 0.0 0.0 0.00 0.00 0.00 96 1008.7
20260905102704 15 80 0.0 0.0 0.00 0.00 0.00 96 1008.6
20260905102204 15 81 0.0 0.0 0.00 0.00 0.00 96 1008.5
20260905101704 15 80 0.0 0.0 0.00 0.00 0.00 96 1008.5
20260905101204 15 81 0.0 0.0 0.00 0.00 0.00 96 1008.4
20260905100204 15 80 0.0 0.0 0.00 0.00 0.00 96 1008.4
20260905095704 15 81 0.0 0.0 0.00 0.00 0.00 96 1008.4
20260905095204 15 81 0.0 0.0 0.00 0.00 0.00 96 1008.3
20260905094704 15 81 0.0 0.0 0.00 0.00 0.00 96 1008.3
20260905094204 15 81 0.0 0.0 0.00 0.00 0.00 96 1008.3
20260905093704 15 81 0.0 0.0 0.00 0.00 0.00 96 1008.3
20260905091704 15 80 0.0 0.0 0.00 0.00 0.00 95 1008.2
20260905090204 15 81 0.0 0.0 0.00 0.00 0.00 95 1008.2
20260905085703 15 80 0.0 0.0 0.00 0.00 0.00 95 1008.1
20260905083204 15 80 0.0 0.0 0.00 0.00 0.00 95 1008.0
20260905082704 15 80 0.0 0.0 0.00 0.00 0.00 95 1008.0
20260905082204 15 80 0.0 0.0 0.00 0.00 0.00 94 1008.0
20260905081204 15 81 0.0 0.0 0.00 0.00 0.00 95 1008.0
20260905080204 15 81 0.0 0.0 0.00 0.00 0.00 94 1008.0
20260905072204 15 80 0.0 0.0 0.00 0.00 0.00 94 1008.1
20260905071704 15 81 0.0 0.0 0.00 0.00 0.00 94 1008.2
20260905070204 15 81 0.0 0.0 0.00 0.00 0.00 94 1008.3
20260905064204 16 80 0.0 0.0 0.00 0.00 0.00 94 1008.4
20260905063203 16 80 0.0 0.0 0.00 0.00 0.00 94 1008.5
20260905062204 16 81 0.0 0.0 0.00 0.00 0.00 94 1008.4
20260905061704 16 80 0.0 0.0 0.00 0.00 0.00 94 1008.5
20260905060204 16 80 0.0 0.0 0.00 0.00 0.00 94 1008.7
20260905055703 16 81 0.0 0.0 0.00 0.00 0.00 94 1008.7
20260905054204 16 81 0.0 0.0 0.00 0.00 0.00 94 1008.6
20260905053704 16 81 0.0 0.0 0.00 0.00 0.00 94 1008.6
20260905052704 16 81 0.0 0.0 0.00 0.00 0.00 93 1008.6
20260905052203 16 80 0.0 0.0 0.00 0.00 0.00 93 1008.6
20260905051204 16 81 0.0 0.0 0.00 0.00 0.00 93 1008.7